Powrót do katalogu

STARLINK-32015

AktywnyŁącznośćVLEO
NORAD 60111·PAYLOAD·🇺🇸 United States

Wystrzelony Jun 23, 2024 z Cape Canaveral Space Force Station

Loading…

Następne Przeloty (najbliższe 24 godziny)

TLE

ŚwieżeSource: CelesTrak SupGP

Epoka: Sep 14, 2026, 21:29 UTC

1 60111C 24117W   26257.89562500  .00041405  00000+0  12233-2 0  2574
2 60111  53.1563 235.7121 0001393 100.9960 161.4448 15.34370783    16

Śledź STARLINK-32015 w czasie rzeczywistym z AllMySat

Download on the App Store